Tracking 19562 objects as of 22-Mar-2019
HD Live streaming from Space Station
objects crossing your sky now

AMC-11 (GE-11)

Track AMC-11 (GE-11) now!
AMC-11 (GE-11) is classified as:


NORAD ID: 28252
Int'l Code: 2004-017A
Perigee: 35,782.1 km
Apogee: 35,806.6 km
Inclination: 0.0 °
Period: 1,436.1 minutes
Semi major axis: 42165 km
RCS: 21.9479 m2 (large)
Launch date: May 19, 2004
Source: SOCIETE EUROPEENNE DES SATELLITES (SES)
Launch site: AIR FORCE EASTERN TEST RANGE (AFETR)

24 C-band transponders.
aabbcc
Your satellite tracking list
Your tracking list is empty




NASA's NSSDC Master Catalog

Two Line Element Set (TLE):
1 28252U 04017A   19081.54748580  .00000044  00000-0  00000+0 0  9998
2 28252   0.0128 158.8548 0002907 217.1638 229.8228  1.00269605 54198
Source of the keplerian elements: AFSPC